Leuchars, United Kingdom

10:45 PM BST on July 25, 2017 (GMT +0100)
Leuchars Air Base

Weather History for EGQL - August, 2013

Change the Weather History Date:

Wednesday, August 7, 2013

  Actual Average Record
Temperature  
Mean Temperature 56 °F -  
Max Temperature 65 °F 62 °F 71 °F (2002)
Min Temperature 48 °F 49 °F 44 °F (2005)
Degree Days  
Heating Degree Days 8    
Growing Degree Days 6 (Base 50)    
Moisture  
Dew Point 53 °F    
Average Humidity 83    
Maximum Humidity 100    
Minimum Humidity 61    
Precipitation  
Precipitation 0.04 in - - ()
Sea Level Pressure  
Sea Level Pressure 30.00 in    
Wind  
Wind Speed 5 mph ()    
Max Wind Speed 13 mph    
Max Gust Speed -    
Visibility 8.2 miles    
Events Fog , Rain    
Averages and records for this station are not official NWS values.
T = Trace of Precipitation, MM = Missing Value Source: Averaged Metar Reports

Daily Weather History Graph

Daily Weather History Graph

Search for Another Location

Airport or City:

Trip Planner

Search our weather history database for the weather conditions in past years. The results will help you decide how hot, cold, wet, or windy it might be!

Date:

Astronomy

Aug. 07, 2013 Rise Set
Actual Time 5:25 AM BST 9:07 PM BST
Civil Twilight 4:38 AM BST 9:54 PM BST
Nautical Twilight 3:31 AM BST 11:00 PM BST
Astronomical Twilight 1:49 AM BST 12:44 AM BST
Moon 6:19 AM BST (8/7) 8:41 PM BST (8/7)
Length of Visible Light 17h 15m
Length of Day
15h 42m
New Moon, 0% of the Moon is Illuminated
Aug 7
New Moon
Aug 14
First Quarter
Aug 21
Full
Aug 28
Last Quarter
Sep 5
New

Hourly Weather History & Observations

Time (BST) Temp. Dew Point Humidity Pressure Visibility Wind Dir Wind Speed Gust Speed Precip Events Conditions
12:50 AM 54 °F 50 °F 81% 29.98 in 19 mi West 3.5 mph - -   Mostly Cloudy
12:50 AM 53.6 °F 50.0 °F 88% 29.98 in 6.2 mi West 3.5 mph - N/A   Mostly Cloudy
1:50 AM 55.4 °F 50.0 °F 82% 29.98 in - West 5.8 mph - N/A   Clear
2:50 AM 53.6 °F 50.0 °F 88% 29.95 in - West 5.8 mph - N/A   Clear
3:50 AM 52 °F 49 °F 87% 29.96 in 19 mi East 2.3 mph - -   Scattered Clouds
3:50 AM 51.8 °F 50.0 °F 94% 29.95 in - East 2.3 mph - N/A   Clear
4:50 AM 50.0 °F 48.2 °F 94% 29.95 in 6.2 mi SW 2.3 mph - N/A Fog Shallow Fog
5:50 AM 50.0 °F 48.2 °F 94% 29.98 in - WNW 2.3 mph - N/A   Clear
6:50 AM 53 °F 51 °F 88% 29.99 in 28 mi West 3.5 mph - -   Scattered Clouds
6:50 AM 53.6 °F 50.0 °F 88% 29.98 in 6.2 mi West 3.5 mph - N/A   Mostly Cloudy
7:50 AM 55.4 °F 51.8 °F 88% 29.98 in - West 3.5 mph - N/A   Clear
8:50 AM 59.0 °F 51.8 °F 77% 29.98 in - WNW 1.2 mph - N/A   Clear
9:50 AM 63 °F 53 °F 61% 30.00 in 28 mi West 2.3 mph - -   Scattered Clouds
9:50 AM 62.6 °F 53.6 °F 72% 29.98 in 6.2 mi West 2.3 mph - N/A   Scattered Clouds
10:50 AM 62.6 °F 53.6 °F 72% 30.01 in 6.2 mi NNE 4.6 mph - N/A   Mostly Cloudy
11:50 AM 62.6 °F 53.6 °F 72% 30.01 in 6.2 mi East 9.2 mph - N/A   Mostly Cloudy
12:50 PM 62 °F 52 °F 62% 30.02 in 31 mi ESE 9.2 mph - -   Partly Cloudy
12:50 PM 62.6 °F 51.8 °F 68% 30.01 in 6.2 mi ESE 9.2 mph - N/A   Mostly Cloudy
1:50 PM 60.8 °F 55.4 °F 82% 30.01 in 6.2 mi ESE 9.2 mph - N/A   Mostly Cloudy
2:50 PM 60.8 °F 53.6 °F 77% 30.01 in 6.2 mi East 10.4 mph - N/A   Mostly Cloudy
3:50 PM 61 °F 54 °F 70% 30.02 in 31 mi East 11.5 mph - -   Partly Cloudy
3:50 PM 60.8 °F 53.6 °F 77% 30.01 in 6.2 mi East 11.5 mph - N/A   Scattered Clouds
4:50 PM 60.8 °F 55.4 °F 82% 30.01 in 6.2 mi ESE 12.7 mph - N/A   Mostly Cloudy
5:50 PM 60.8 °F 55.4 °F 82% 30.01 in 6.2 mi ESE 10.4 mph - N/A   Mostly Cloudy
6:50 PM 60 °F 55 °F 80% 30.04 in 12 mi East 8.1 mph - - Rain Light Rain Showers
6:50 PM 59.0 °F 55.4 °F 88% 30.04 in 6.2 mi East 8.1 mph - N/A Rain Light Rain Showers
7:50 PM 59.0 °F 57.2 °F 94% 30.04 in 6.2 mi East 3.5 mph - N/A   Mostly Cloudy
8:50 PM 57.2 °F 55.4 °F 94% 30.04 in 6.2 mi ENE 5.8 mph - N/A Rain Light Rain
9:50 PM 57 °F 56 °F 94% 30.06 in 19 mi NE 4.6 mph - - Rain Light Rain
9:50 PM 57.2 °F 55.4 °F 94% 30.04 in 6.2 mi NE 4.6 mph - N/A   Mostly Cloudy
10:50 PM 55.4 °F 55.4 °F 100% 30.06 in 6.2 mi NNE 4.6 mph - N/A Rain Light Rain
11:50 PM 55.4 °F 53.6 °F 94% 30.06 in 6.2 mi NNE 3.5 mph - N/A   Mostly Cloudy